Location: Newark
(40.3500°N, 15.2333°E)
Time: 21:23:26
(UTC+00:00)

NOAA 15 - Pass Details

Date: 24 February 2020
Orbit: 797 x 813 km, 98.7° (Epoch: 09 April)

Event Time Altitude Azimuth Distance (km) Brightness Sun altitude
Rises 18:21:15 0° 191° (SSW) 3,317 7.9 -19.2°
Reaches altitude 10° 18:23:49 10° 202° (SSW) 2,392 7.3 -19.7°
Maximum altitude 18:28:29 31° 264° (W) 1,390 6.5 -20.6°
Drops below altitude 10° 18:33:11 10° 326° (NW) 2,409 7.6 -21.5°
Sets 18:35:49 0° 336° (NNW) 3,345 8.2 -22.0°
